CZ-4C DEB, 44614

Orbit data source: Space-Track

CZ-4C DEB, 44614 is space debris in SSO originally from a launch on Tue, 14 Nov 2017 UTC launched from the Taiyaun Space Center, China (TSC). Debris objects in space refer to the collection of defunct objects orbiting the Earth. Examples of debris include non-operational satellites, rocket bodies, and fragments generated from explosions, collisions, or faulty payload assembly.

Loading next visibility...
Identifier
44614, 2017-072E
Orbit
SSO
Country
Flag of CNCN / PRC
Related business
Manufacturer
Unknown
Mission
Spacecraft
Bus & Motor
Unknown
Mass
Unknown
Launch date (UTC)
2017-11-14 (9 years ago)
Launch vehicle
Unknown
Launch site
Taiyaun Space Center, China (TSC)
Object type
Payload
Rocket body
Debris
Shape & HBR
Unknown shape, 0.1 m
Radar Cross Section
Small (<0.1 m²)

Expand to show TLE details & history
Last TLE update: 2 days ago

TLE from 2 days ago
0 CZ-4C DEB
1 44614U 17072E   26171.46752197  .00000131  00000-0  13237-3 0  9998
2 44614  98.7312 260.9222 0228123  22.0000 339.0760 13.80908152431896
Epoch: 2026-06-20T11:13Z
TLE epoch observation values (Epoch: 2026-06-20T11:13:13.898Z)
Latitude
-0.00004°
Longitude
-176.06743°
Altitude
807.627 km
Speed
7.528 km/s
True Right ascension
17h 23m 41s
True Declination
0° 00' 00"
Sunlit
Object was in full shadow at epoch
Visualization orbit readout
Latitude
Unknown
Longitude
Unknown
Altitude
Unknown
Speed
Unknown
Apparent Right ascension
Unknown
Apparent Declination
Unknown
Sunlit
N/A
Visualization observer readout
Local Sidereal Time
21:40:11
Azimuth
Unknown
Elevation
Unknown
Doppler factor
Unknown
Orbital elements
Apogee altitude
1,125.229 km
Perigee altitude
790.526 km
Semi-major axis
7,336.014 km
Eccentricity
0.02281
Inclination
98.7312°
RAAN
260.9222°
Arg. of periapsis
22°
True anomaly
338.11696°
Mean anomaly
339.076°
Eccentric anomaly
338.59907°
Mean motion
3.45424 °/min
Orbital period
104.22 mins
BSTAR
0.00013237
Loading maneuver chart data...
Computing Atmospheric mass density...
Loading historical data...
Loading historical data...
Loading historical data...
Loading historical data...
Loading historical data...
Loading historical data...
Loading historical data...
Other satellites on launch #72 in the year 2017 (2017-11-14 UTC)

Documentation

Showing up to 5 results
|